[[{"header":{"parameterUnit":"m.s-1","parameterCategory":1,"la1":30.2991,"la2":30.254,"lo1":-89.0895,"lo2":-89.0444,"dy":0.0017,"dx":0.0017,"nx":28,"ny":28,"refTime":"2024-10-14T03:00:00:Z","depth":0,"parameterNumber":2,"parameterNumberName":"U-component_of_WINDS"},"data":[0,0,0,0,0,0,0,0,0,0,0,0,0,0,0,0,0,0,0,0,0,0,0,0,0,0,0,0,0,0,0,0,0,0,0,0,0,0,0,0,0,0,0,0,0,0,0,0,0,0,0,0,0,0,0,0,0,0,1.8494,1.8494,0,1.8528,1.8528,1.8528,1.8599,1.8601,1.8602,1.8604,1.8635,1.8634,1.8634,0,0,0,0,0,0,0,0,0,0,0,0,0,1.8489,1.8488,1.8494,1.8494,1.8495,1.8528,1.8528,1.8528,1.8599,1.8601,1.8603,1.8604,1.8635,1.8634,1.8634,0,0,0,0,0,0,0,0,0,0,0,0,0,1.8503,1.8488,1.8494,1.8534,1.8538,1.8527,1.8528,1.8529,1.8599,1.8601,1.8603,1.8605,1.8635,1.8634,1.8634,1.8585,0,0,1.8631,1.8631,0,0,0,0,0,0,0,0,1.8502,1.8503,1.8528,1.8531,1.8536,1.8562,1.8538,1.8548,1.8598,1.8576,1.8604,1.8606,1.8608,1.861,1.8611,1.8587,1.8588,1.8631,1.8631,1.863,1.863,0,0,0,0,0,0,0,1.8501,1.8502,1.8507,1.8528,1.8533,1.855,1.8554,1.854,1.8579,1.8578,1.8583,1.8586,1.8611,1.8612,1.8613,1.8589,1.8631,1.863,1.863,1.863,1.8526,1.8523,0,0,0,0,0,0,1.8495,1.8501,1.8506,1.8508,1.8524,1.8548,1.8553,1.8551,1.858,1.8586,1.8584,1.8589,1.8612,1.8613,1.8614,1.8559,1.863,1.863,1.8629,1.8528,1.8525,1.8523,0,0,0,0,0,0,1.8494,1.8495,1.8505,1.8506,1.8509,1.8546,1.8543,1.8551,1.8552,1.8585,1.8592,1.8578,1.8614,1.8615,1.8592,1.8561,1.8629,1.8629,1.8531,1.8527,1.8524,1.8447,0,0,0,0,0,0,1.8494,1.8494,1.8477,1.8505,1.8508,1.8483,1.8541,1.855,1.8551,1.8557,1.8581,1.8587,1.8616,1.8593,1.8591,1.8561,1.8628,1.8534,1.8529,1.8525,1.8453,1.8442,1.8432,0,0,0,0,0,1.8494,1.8453,1.8475,1.8476,1.8488,1.8481,1.8483,1.8518,1.8548,1.853,1.8551,1.8586,1.8565,1.859,1.8589,1.8557,1.8536,1.853,1.8525,1.8457,1.8444,1.8433,0,0,0,0,0,0,1.8419,1.8458,1.8483,1.8451,1.8462,1.8493,1.8472,1.8502,1.8505,1.8511,1.8554,1.8558,1.8529,1.8542,1.8569,1.8512,1.8556,1.855,1.8505,1.8492,1.8482,1.8478,1.8627,0,0,0,0,0,1.8399,1.8391,1.8425,1.8394,1.8398,1.8434,1.8432,1.8459,1.8471,1.8476,1.8496,1.8506,1.8502,1.8498,1.8496,1.8456,1.8461,1.8434,1.8424,1.8415,1.8409,1.8387,1.8375,1.8506,1.8506,1.8506,0,0,1.8357,1.8377,1.8369,1.8379,1.8391,1.8381,1.8437,1.8424,1.8417,1.8474,1.8453,1.8468,1.8483,1.845,1.8437,1.846,1.8374,1.8408,1.8401,1.84,1.8381,1.8368,1.8357,1.8502,1.8503,1.8503,0,0,1.8275,1.829,1.8265,1.8276,1.8294,1.8318,1.8312,1.8339,1.8351,1.8331,1.8374,1.8365,1.8357,1.8366,1.8369,1.8291,1.8322,1.8289,1.8234,1.8213,1.8202,1.8193,1.8164,1.8153,1.8283,1.8283,1.8283,0,1.822,1.8207,1.8248,1.8232,1.8235,1.8288,1.8262,1.8271,1.8286,1.8286,1.8312,1.8303,1.8316,1.8286,1.8267,1.8269,1.8262,1.8285,1.8201,1.8192,1.8184,1.8156,1.8145,1.8279,1.8279,1.828,1.828,0,1.8138,1.8129,1.8107,1.8121,1.8121,1.8101,1.8137,1.8132,1.8159,1.818,1.8159,1.8177,1.8179,1.8175,1.82,1.8148,1.8161,1.8193,1.8238,1.8167,1.8141,1.8131,1.8273,1.8274,1.8275,1.8276,0,0,1.8008,1.8047,1.8037,1.8044,1.8068,1.8061,1.8043,1.8046,1.804,1.805,1.8034,1.8027,1.8057,1.806,1.8087,1.8069,1.8004,1.8103,1.8104,1.8082,1.7945,1.7919,1.7906,1.8026,1.8024,1.8022,1.7943,0,1.793,1.7901,1.7938,1.79,1.7891,1.7942,1.7926,1.7938,1.7958,1.7952,1.7974,1.7967,1.8008,1.801,1.7994,1.8015,1.7976,1.8021,1.801,1.8009,1.8002,1.7894,1.7866,1.7791,1.7934,1.7932,1.7931,0,1.7835,1.784,1.7802,1.7828,1.7826,1.7811,1.7816,1.7811,1.7826,1.7842,1.7846,1.7879,1.7861,1.7906,1.7882,1.7912,1.7909,1.7919,1.7917,1.7915,1.7964,1.7887,1.7768,1.7755,1.7916,1.7917,1.7918,0,1.7741,1.774,1.7716,1.7721,1.7752,1.7739,1.7751,1.7769,1.7768,1.7773,1.7773,1.7775,1.7776,1.7777,1.7809,1.7839,1.778,1.7828,1.7791,1.7789,1.7774,1.7774,1.765,1.7776,1.7776,1.7776,1.7776,0,1.7649,1.7623,1.7675,1.766,1.7633,1.7675,1.7646,1.7663,1.7678,1.7667,1.7711,1.7699,1.7744,1.7737,1.7762,1.7737,1.7737,1.7748,1.7755,1.7743,1.7741,1.774,1.7746,1.7773,1.7774,1.7775,1.7775,0,1.7539,1.7573,1.7551,1.7582,1.7589,1.7567,1.7593,1.758,1.7603,1.7589,1.7587,1.7623,1.7617,1.765,1.7649,1.7666,1.7628,1.7644,1.7623,1.7627,1.7587,1.759,1.7457,1.7441,1.7578,1.7577,1.7576,0,1.7477,1.7459,1.7488,1.7484,1.7494,1.7487,1.7488,1.7528,1.7526,1.7542,1.7527,1.7525,1.7525,1.7512,1.7537,1.7537,1.7552,1.7506,1.7552,1.7541,1.7549,1.7549,1.7547,1.7495,1.7493,1.7492,1.7491,0,1.7363,1.7381,1.7379,1.7384,1.7383,1.7388,1.7396,1.739,1.7435,1.743,1.7425,1.7425,1.7425,1.7421,1.7426,1.7437,1.747,1.7477,1.7468,1.7454,1.7442,1.7446,1.7594,1.7479,1.748,1.7481,1.7482,1.7482,1.7274,1.7259,1.7278,1.7275,1.7286,1.7292,1.7281,1.7303,1.73,1.7304,1.7328,1.7318,1.7333,1.7343,1.7351,1.7343,1.7365,1.7352,1.7349,1.7344,1.7336,1.7445,1.7344,1.7344,1.7345,1.7345,1.7345,0,1.716,1.7175,1.7172,1.7182,1.718,1.7214,1.7224,1.7219,1.721,1.7222,1.7221,1.7215,1.7212,1.7237,1.7237,1.7225,1.724,1.7223,1.7224,1.7225,1.7318,1.7325,1.7211,1.7211,1.7211,1.7211,1.7211,1.7211,1.7101,1.7078,1.7098,1.708,1.7095,1.7086,1.7089,1.7095,1.7104,1.7095,1.7093,1.711,1.7127,1.7129,1.7127,1.7134,1.7131,1.7109,1.7121,1.7206,1.7219,1.7231,1.7238,1.7108,1.7108,1.7029,1.7028,1.7028]},{"header":{"parameterUnit":"m.s-1","parameterCategory":1,"la1":30.2991,"la2":30.254,"lo1":-89.0895,"lo2":-89.0444,"dy":0.0017,"dx":0.0017,"nx":28,"ny":28,"refTime":"2024-10-14T03:00:00:Z","depth":0,"parameterNumber":3,"parameterNumberName":"V-component_of_WINDS"},"data":[0,0,0,0,0,0,0,0,0,0,0,0,0,0,0,0,0,0,0,0,0,0,0,0,0,0,0,0,0,0,0,0,0,0,0,0,0,0,0,0,0,0,0,0,0,0,0,0,0,0,0,0,0,0,0,0,0,0,-1.366,-1.366,0,-1.3703,-1.3704,-1.3704,-1.3727,-1.3727,-1.3727,-1.3727,-1.3766,-1.3767,-1.3768,0,0,0,0,0,0,0,0,0,0,0,0,0,-1.3595,-1.3596,-1.366,-1.366,-1.3661,-1.3703,-1.3704,-1.3704,-1.3727,-1.3727,-1.3727,-1.3727,-1.3766,-1.3767,-1.3768,0,0,0,0,0,0,0,0,0,0,0,0,0,-1.3629,-1.3596,-1.366,-1.3677,-1.3679,-1.3703,-1.3704,-1.3704,-1.3727,-1.3727,-1.3727,-1.3727,-1.3765,-1.3767,-1.3768,-1.3776,0,0,-1.3773,-1.3774,0,0,0,0,0,0,0,0,-1.3627,-1.3631,-1.3674,-1.3676,-1.3679,-1.371,-1.3695,-1.3728,-1.3727,-1.3709,-1.3727,-1.3727,-1.3747,-1.375,-1.3758,-1.3778,-1.378,-1.3773,-1.3774,-1.3775,-1.3775,0,0,0,0,0,0,0,-1.3625,-1.363,-1.3677,-1.3675,-1.3677,-1.3683,-1.3687,-1.3702,-1.3727,-1.371,-1.3712,-1.3717,-1.3748,-1.3756,-1.3759,-1.378,-1.3773,-1.3774,-1.3775,-1.3776,-1.3814,-1.3814,0,0,0,0,0,0,-1.362,-1.3627,-1.3675,-1.3678,-1.3653,-1.3684,-1.3689,-1.37,-1.3727,-1.3731,-1.3717,-1.3718,-1.3754,-1.3757,-1.376,-1.3775,-1.3775,-1.3776,-1.3777,-1.3813,-1.3814,-1.3814,0,0,0,0,0,0,-1.3618,-1.3624,-1.3674,-1.3653,-1.366,-1.3685,-1.3696,-1.37,-1.3709,-1.3732,-1.3736,-1.3721,-1.3754,-1.3758,-1.3773,-1.3776,-1.3777,-1.3778,-1.3813,-1.3813,-1.3814,-1.3801,0,0,0,0,0,0,-1.3616,-1.3623,-1.3627,-1.3653,-1.3661,-1.3687,-1.3696,-1.3701,-1.3712,-1.3713,-1.3737,-1.374,-1.3754,-1.3771,-1.3775,-1.3778,-1.3779,-1.3813,-1.3813,-1.3814,-1.3801,-1.38,-1.38,0,0,0,0,0,-1.3614,-1.3619,-1.3627,-1.3632,-1.3666,-1.3687,-1.3691,-1.3708,-1.3712,-1.3716,-1.3731,-1.374,-1.3775,-1.3772,-1.3777,-1.3781,-1.3813,-1.3813,-1.3814,-1.3801,-1.3801,-1.38,0,0,0,0,0,0,-1.3589,-1.3623,-1.3631,-1.3646,-1.3664,-1.369,-1.3696,-1.3706,-1.3722,-1.3723,-1.3742,-1.3747,-1.3761,-1.3772,-1.3769,-1.3792,-1.3795,-1.3796,-1.3784,-1.3784,-1.3783,-1.3781,-1.378,0,0,0,0,0,-1.3586,-1.3601,-1.3629,-1.3639,-1.3648,-1.367,-1.368,-1.3692,-1.371,-1.3717,-1.3734,-1.375,-1.3766,-1.3775,-1.379,-1.3803,-1.3809,-1.3808,-1.3807,-1.3806,-1.3807,-1.3818,-1.3819,-1.3814,-1.3814,-1.3814,0,0,-1.3578,-1.3599,-1.3606,-1.3635,-1.365,-1.3665,-1.3676,-1.369,-1.3702,-1.3719,-1.3736,-1.3749,-1.3768,-1.3784,-1.3791,-1.3793,-1.381,-1.3807,-1.3806,-1.3808,-1.3819,-1.3819,-1.382,-1.3815,-1.3815,-1.3814,0,0,-1.3573,-1.3589,-1.3601,-1.3617,-1.3641,-1.3657,-1.366,-1.3686,-1.3696,-1.3714,-1.3728,-1.3742,-1.3766,-1.3781,-1.3792,-1.3797,-1.3806,-1.3801,-1.3798,-1.3809,-1.3809,-1.3809,-1.3814,-1.3815,-1.3802,-1.3802,-1.3802,0,-1.356,-1.3584,-1.3605,-1.362,-1.3633,-1.3652,-1.3665,-1.3679,-1.3706,-1.3714,-1.3717,-1.3752,-1.3766,-1.3787,-1.3789,-1.3796,-1.3801,-1.3798,-1.3807,-1.3808,-1.3809,-1.3813,-1.3814,-1.3801,-1.3801,-1.3801,-1.3801,0,-1.3569,-1.3585,-1.3592,-1.3622,-1.3635,-1.3648,-1.3672,-1.3683,-1.3695,-1.371,-1.3729,-1.3748,-1.3769,-1.3774,-1.3784,-1.3798,-1.3799,-1.3804,-1.3808,-1.3808,-1.3813,-1.3814,-1.38,-1.38,-1.3801,-1.3801,0,0,-1.3546,-1.3591,-1.3593,-1.3608,-1.3638,-1.3651,-1.3667,-1.369,-1.37,-1.3718,-1.3733,-1.3756,-1.3763,-1.3775,-1.3787,-1.3796,-1.3802,-1.3801,-1.3802,-1.3802,-1.3821,-1.3818,-1.382,-1.3809,-1.3809,-1.3809,-1.382,0,-1.3547,-1.3578,-1.3599,-1.3621,-1.3638,-1.3659,-1.3672,-1.3692,-1.3708,-1.3725,-1.3741,-1.3758,-1.3764,-1.3772,-1.3782,-1.38,-1.3807,-1.3799,-1.3823,-1.3823,-1.3819,-1.3821,-1.3818,-1.3827,-1.3822,-1.3822,-1.3822,0,-1.3551,-1.3573,-1.3598,-1.363,-1.3638,-1.365,-1.3675,-1.3691,-1.3714,-1.3725,-1.3741,-1.3755,-1.3773,-1.3775,-1.3801,-1.3795,-1.3807,-1.3817,-1.3818,-1.3821,-1.3824,-1.3827,-1.383,-1.3832,-1.3825,-1.3824,-1.3824,0,-1.3536,-1.3571,-1.3592,-1.3604,-1.3641,-1.365,-1.3665,-1.3689,-1.3703,-1.3724,-1.3734,-1.3756,-1.3768,-1.3785,-1.3805,-1.3804,-1.3829,-1.3832,-1.3839,-1.3839,-1.3844,-1.3844,-1.3851,-1.3849,-1.3849,-1.3849,-1.3849,0,-1.3535,-1.355,-1.3587,-1.3599,-1.3618,-1.3642,-1.3659,-1.3676,-1.3698,-1.3715,-1.3732,-1.3747,-1.3771,-1.3789,-1.3804,-1.3825,-1.383,-1.3839,-1.3844,-1.3839,-1.3838,-1.3847,-1.3848,-1.3849,-1.3849,-1.3849,-1.3849,0,-1.3521,-1.3546,-1.357,-1.3605,-1.3614,-1.3627,-1.3656,-1.3669,-1.3687,-1.3708,-1.3715,-1.3742,-1.3765,-1.3786,-1.3815,-1.3826,-1.3847,-1.3851,-1.384,-1.3843,-1.385,-1.3849,-1.3864,-1.3868,-1.3861,-1.3861,-1.3861,0,-1.3519,-1.3532,-1.357,-1.3584,-1.36,-1.3621,-1.3637,-1.3661,-1.3677,-1.3707,-1.3717,-1.3742,-1.3763,-1.3799,-1.3821,-1.3844,-1.385,-1.3854,-1.3853,-1.385,-1.3853,-1.3853,-1.3855,-1.3853,-1.3853,-1.3853,-1.3853,0,-1.3515,-1.3528,-1.3551,-1.3579,-1.3598,-1.362,-1.3643,-1.3653,-1.3682,-1.3699,-1.3724,-1.3741,-1.3773,-1.3798,-1.3824,-1.384,-1.3852,-1.3853,-1.3857,-1.3852,-1.3847,-1.3852,-1.3841,-1.3853,-1.3853,-1.3853,-1.3853,-1.3853,-1.3509,-1.3523,-1.3553,-1.3579,-1.36,-1.3622,-1.3637,-1.3659,-1.3681,-1.3711,-1.3724,-1.375,-1.3776,-1.3814,-1.3829,-1.385,-1.3852,-1.3856,-1.3858,-1.3859,-1.3859,-1.3843,-1.3854,-1.3854,-1.3855,-1.3855,-1.3855,0,-1.3508,-1.3529,-1.3553,-1.3587,-1.3607,-1.3619,-1.3646,-1.3663,-1.3686,-1.3711,-1.3733,-1.3763,-1.3788,-1.3813,-1.384,-1.3852,-1.3858,-1.3858,-1.3858,-1.3862,-1.3854,-1.385,-1.3853,-1.3853,-1.3853,-1.3853,-1.3853,-1.3853,-1.351,-1.3535,-1.3552,-1.3589,-1.361,-1.3638,-1.3652,-1.3673,-1.3694,-1.3728,-1.375,-1.3767,-1.3793,-1.3822,-1.3846,-1.3853,-1.3863,-1.3861,-1.387,-1.3862,-1.3862,-1.3862,-1.3858,-1.3863,-1.3863,-1.3876,-1.3876,-1.3876]}]]